When you browse on this site, cookies collect data to enhance your experience and personalize the content and advertising you see.
Visit our Privacy Policy to learn more. By continuing to use the site, you agree to this use of cookies and data.
  • în România
  • Lista ţărilor
  • Pe 7 zile
  • Temperatura apei
  • Hartă satelitară
  • Meteo pe hartă
  • Widget-uri
  • user-avatar
    Intrare

    Meteo pe oră la Memphis

    Astăzi, 26 Aprilie, Vineri

    Timp Temperatura Precipitaţii Vânt Presiune Umiditate
    00:00 +16°C° 0 mm 3 m/s 750 mmHg 84%
    01:00 +15°C° 0 mm 4 m/s 751 mmHg 85%
    02:00 +15°C° 0 mm 5 m/s 752 mmHg 85%
    03:00 +15°C° 0 mm 6 m/s 752 mmHg 85%
    04:00 +14°C° 0 mm 5 m/s 753 mmHg 81%
    05:00 +13°C° 0 mm 5 m/s 754 mmHg 76%
    06:00 +12°C° 0 mm 5 m/s 755 mmHg 71%
    07:00 +14°C° 0 mm 5 m/s 755 mmHg 66%
    08:00 +16°C° 0 mm 5 m/s 756 mmHg 61%
    09:00 +17°C° 0 mm 5 m/s 756 mmHg 56%
    10:00 +20°C° 0 mm 5 m/s 756 mmHg 51%
    11:00 +21°C° 0 mm 5 m/s 756 mmHg 45%
    12:00 +23°C° 0 mm 6 m/s 757 mmHg 39%
    13:00 +23°C° 0 mm 5 m/s 756 mmHg 39%
    14:00 +23°C° 0 mm 5 m/s 756 mmHg 39%
    15:00 +23°C° 0 mm 5 m/s 756 mmHg 39%
    16:00 +22°C° 0 mm 4 m/s 756 mmHg 42%
    17:00 +21°C° 0 mm 3 m/s 756 mmHg 45%
    18:00 +20°C° 0 mm 3 m/s 755 mmHg 48%
    19:00 +19°C° 0 mm 2 m/s 756 mmHg 50%
    20:00 +19°C° 0 mm 1 m/s 756 mmHg 51%
    21:00 +16°C° 0 mm 1 m/s 757 mmHg 52%
    22:00 +15°C° 0 mm 0 m/s 756 mmHg 53%
    23:00 +14°C° 0 mm 0 m/s 756 mmHg 54%

    Mâine, 27 Aprilie, Sâmbătă

    Timp Temperatura Precipitaţii Vânt Presiune Umiditate
    00:00 +14°C° 0 mm 0 m/s 756 mmHg 55%
    01:00 +14°C° 0 mm 0 m/s 756 mmHg 55%
    02:00 +14°C° 0 mm 1 m/s 756 mmHg 56%
    03:00 +14°C° 0 mm 1 m/s 756 mmHg 57%
    04:00 +14°C° 0 mm 1 m/s 756 mmHg 59%
    05:00 +14°C° 0 mm 2 m/s 755 mmHg 61%
    06:00 +14°C° 0 mm 2 m/s 755 mmHg 64%
    07:00 +16°C° 0 mm 3 m/s 755 mmHg 61%
    08:00 +17°C° 0 mm 5 m/s 755 mmHg 59%
    09:00 +20°C° 0 mm 6 m/s 754 mmHg 56%
    10:00 +21°C° 0 mm 6 m/s 754 mmHg 54%
    11:00 +22°C° 0 mm 6 m/s 753 mmHg 52%
    12:00 +23°C° 0 mm 6 m/s 753 mmHg 50%
    13:00 +23°C° 0 mm 7 m/s 752 mmHg 50%
    14:00 +23°C° 0 mm 7 m/s 751 mmHg 50%
    15:00 +23°C° 0 mm 8 m/s 750 mmHg 49%
    16:00 +22°C° 0 mm 7 m/s 750 mmHg 54%
    17:00 +22°C° 0 mm 6 m/s 750 mmHg 58%
    18:00 +22°C° 0 mm 5 m/s 750 mmHg 62%
    19:00 +21°C° 0 mm 5 m/s 750 mmHg 63%
    20:00 +21°C° 0 mm 5 m/s 750 mmHg 64%
    21:00 +21°C° 0 mm 5 m/s 750 mmHg 65%
    22:00 +20°C° 0.1 mm 5 m/s 751 mmHg 69%
    23:00 +20°C° 0.1 mm 5 m/s 751 mmHg 73%

    Poimâine, 28 Aprilie, Duminică

    Timp Temperatura Precipitaţii Vânt Presiune Umiditate
    00:00 +20°C° 0.1 mm 4 m/s 751 mmHg 78%
    01:00 +19°C° 0.1 mm 4 m/s 752 mmHg 79%
    02:00 +18°C° 0.1 mm 4 m/s 752 mmHg 81%
    03:00 +18°C° 0.1 mm 4 m/s 752 mmHg 83%
    04:00 +15°C° 0 mm 4 m/s 753 mmHg 80%
    05:00 +14°C° 0 mm 4 m/s 754 mmHg 77%
    06:00 +12°C° 0 mm 5 m/s 755 mmHg 73%
    07:00 +12°C° 0 mm 4 m/s 755 mmHg 71%
    08:00 +13°C° 0 mm 4 m/s 756 mmHg 70%
    09:00 +13°C° 0 mm 4 m/s 756 mmHg 68%
    10:00 +16°C° 0 mm 3 m/s 756 mmHg 64%
    11:00 +17°C° 0 mm 3 m/s 756 mmHg 60%
    12:00 +19°C° 0 mm 2 m/s 757 mmHg 56%
    13:00 +20°C° 0 mm 2 m/s 756 mmHg 57%
    14:00 +20°C° 0 mm 2 m/s 755 mmHg 58%
    15:00 +21°C° 0 mm 3 m/s 754 mmHg 58%
    16:00 +21°C° 0 mm 2 m/s 754 mmHg 62%
    17:00 +21°C° 0 mm 2 m/s 754 mmHg 66%
    18:00 +22°C° 0 mm 1 m/s 754 mmHg 70%
    19:00 +21°C° 0 mm 1 m/s 754 mmHg 73%
    20:00 +20°C° 0 mm 1 m/s 754 mmHg 76%
    21:00 +19°C° 0 mm 1 m/s 755 mmHg 79%
    22:00 +18°C° 0 mm 2 m/s 755 mmHg 84%
    23:00 +18°C° 0 mm 2 m/s 754 mmHg 89%

    29 Aprilie, Luni

    Timp Temperatura Precipitaţii Vânt Presiune Umiditate
    00:00 +18°C° 0 mm 2 m/s 754 mmHg 93%
    01:00 +18°C° 0 mm 3 m/s 754 mmHg 94%
    02:00 +18°C° 0 mm 3 m/s 754 mmHg 94%
    03:00 +19°C° 0 mm 4 m/s 753 mmHg 95%
    04:00 +19°C° 0 mm 4 m/s 754 mmHg 90%
    05:00 +19°C° 0 mm 4 m/s 754 mmHg 85%
    06:00 +19°C° 0 mm 4 m/s 754 mmHg 80%
    07:00 +19°C° 0.1 mm 4 m/s 755 mmHg 78%
    08:00 +20°C° 0.1 mm 4 m/s 755 mmHg 76%
    09:00 +21°C° 0.1 mm 4 m/s 756 mmHg 74%
    10:00 +22°C° 0 mm 4 m/s 756 mmHg 70%
    11:00 +23°C° 0 mm 5 m/s 756 mmHg 65%
    12:00 +26°C° 0 mm 5 m/s 756 mmHg 60%
    13:00 +26°C° 0 mm 5 m/s 756 mmHg 57%
    14:00 +27°C° 0 mm 5 m/s 755 mmHg 53%
    15:00 +28°C° 0 mm 5 m/s 755 mmHg 49%
    16:00 +27°C° 0 mm 5 m/s 755 mmHg 53%
    17:00 +26°C° 0 mm 5 m/s 755 mmHg 56%
    18:00 +26°C° 0 mm 4 m/s 755 mmHg 60%
    19:00 +25°C° 0 mm 4 m/s 755 mmHg 62%
    20:00 +23°C° 0 mm 4 m/s 755 mmHg 64%
    21:00 +22°C° 0 mm 4 m/s 756 mmHg 66%
    22:00 +21°C° 0 mm 4 m/s 756 mmHg 68%
    23:00 +21°C° 0 mm 3 m/s 756 mmHg 70%

    30 Aprilie, Marţi

    Timp Temperatura Precipitaţii Vânt Presiune Umiditate
    00:00 +21°C° 0 mm 3 m/s 756 mmHg 71%
    01:00 +20°C° 0 mm 3 m/s 756 mmHg 74%
    02:00 +20°C° 0 mm 3 m/s 756 mmHg 77%
    03:00 +19°C° 0 mm 3 m/s 756 mmHg 80%
    04:00 +19°C° 0 mm 3 m/s 756 mmHg 83%
    05:00 +19°C° 0 mm 3 m/s 756 mmHg 86%
    06:00 +19°C° 0 mm 3 m/s 757 mmHg 89%
    07:00 +21°C° 0 mm 4 m/s 757 mmHg 84%
    08:00 +23°C° 0 mm 4 m/s 757 mmHg 79%
    09:00 +25°C° 0 mm 4 m/s 757 mmHg 74%
    10:00 +27°C° 0 mm 5 m/s 757 mmHg 68%
    11:00 +28°C° 0 mm 5 m/s 756 mmHg 62%
    12:00 +30°C° 0 mm 6 m/s 756 mmHg 55%
    13:00 +30°C° 0 mm 6 m/s 755 mmHg 54%
    14:00 +30°C° 0 mm 6 m/s 755 mmHg 53%
    15:00 +32°C° 0 mm 6 m/s 754 mmHg 52%
    16:00 +30°C° 0 mm 6 m/s 754 mmHg 57%
    17:00 +29°C° 0 mm 6 m/s 754 mmHg 61%
    18:00 +28°C° 0 mm 5 m/s 753 mmHg 66%
    19:00 +27°C° 0 mm 6 m/s 754 mmHg 66%
    20:00 +27°C° 0 mm 6 m/s 754 mmHg 67%
    21:00 +26°C° 0 mm 6 m/s 754 mmHg 68%
    22:00 +26°C° 0 mm 6 m/s 754 mmHg 69%
    23:00 +26°C° 0 mm 6 m/s 754 mmHg 70%

    1 Mai, Miercuri

    Timp Temperatura Precipitaţii Vânt Presiune Umiditate
    00:00 +26°C° 0 mm 6 m/s 754 mmHg 71%
    01:00 +24°C° 1.6 mm 6 m/s 754 mmHg 77%
    02:00 +23°C° 1.6 mm 6 m/s 754 mmHg 82%
    03:00 +22°C° 1.6 mm 6 m/s 754 mmHg 87%
    04:00 +22°C° 0.3 mm 6 m/s 754 mmHg 88%
    05:00 +22°C° 0.3 mm 6 m/s 755 mmHg 89%
    06:00 +22°C° 0.3 mm 6 m/s 755 mmHg 90%
    07:00 +22°C° 0.1 mm 6 m/s 755 mmHg 89%
    08:00 +23°C° 0.1 mm 6 m/s 756 mmHg 89%
    09:00 +23°C° 0.1 mm 6 m/s 756 mmHg 88%
    10:00 +23°C° 0.1 mm 5 m/s 756 mmHg 87%
    11:00 +23°C° 0.1 mm 5 m/s 756 mmHg 86%
    12:00 +25°C° 0.1 mm 5 m/s 756 mmHg 86%
    13:00 +26°C° 0.2 mm 5 m/s 756 mmHg 80%
    14:00 +27°C° 0.2 mm 5 m/s 756 mmHg 75%
    15:00 +29°C° 0.2 mm 5 m/s 755 mmHg 70%
    16:00 +28°C° 3 mm 4 m/s 755 mmHg 73%
    17:00 +27°C° 3 mm 3 m/s 755 mmHg 77%
    18:00 +26°C° 3 mm 2 m/s 755 mmHg 81%
    19:00 +25°C° 0.2 mm 3 m/s 756 mmHg 82%
    20:00 +23°C° 0.2 mm 4 m/s 756 mmHg 83%
    21:00 +23°C° 0.2 mm 4 m/s 756 mmHg 84%
    22:00 +23°C° 0.1 mm 4 m/s 756 mmHg 86%
    23:00 +22°C° 0.1 mm 4 m/s 756 mmHg 87%
    Arată mai mult